Flag for U.S.A. Weather past 2 weeks in Brattleboro, Vermont, U.S.A.

Now
28 °F

Passing clouds.


Feels Like: 18 °F
Forecast: 6 / 30 °F
Wind: 12 mph from South

Location: Keene / Dillant

Current Time: Mar 3, 2015 at 3:53:52 PM

Latest Report: Mar 3, 2015 at 3:35 PM


Visibility: 10 mi

Pressure: 30.17 "Hg

Humidity: 34%

Dew point: 3 °F

Location of BrattleboroLocation

Historic Weather in Brattleboro — Graph

°F

Brattleboro temperature yesterday

Maximum temperature yesterday: 32 °F (at 2:15 PM)
Minimum temperature yesterday: 14 °F (at 3:55 AM)
Average temperature yesterday: 23 °F

Past Weeks' High & Low Weather Summary

 TemperatureHumidityPressure
High39 °F (Feb 22, 3:35 PM)100% (Feb 22, 3:55 AM)30.73 "Hg (Feb 22, 3:55 AM)
Low-18 °F (Feb 24, 5:15 AM)28% (Feb 23, 4:35 PM)29.54 "Hg (Feb 19, 12:35 PM)
Average13 °F63%30.11 "Hg
* Reported Feb 16 2:15 PM — Mar 3 2:55 PM, Brattleboro, Weather by CustomWeather, © 2015

Note: Actual official high and low records may vary slightly from our data, if they occured in-between our weather recording intervals... More about our weather records

Advertising

Brattleboro weather history for previous 24 hours

 ConditionsComfort  
Time TempWeatherWind HumidityBarometerVisibility
2:55 PM
Tue, Mar 3
28 °FSunny.14 mph37%30.19 "Hg10 mi
2:35 PM28 °FSunny.10 mph34%30.20 "Hg10 mi
2:15 PM28 °FSunny.6 mph34%30.21 "Hg10 mi
1:55 PM28 °FSunny.6 mph31%30.23 "Hg10 mi
1:35 PM27 °FSunny.6 mph33%30.25 "Hg10 mi
1:15 PM27 °FSunny.7 mph33%30.27 "Hg10 mi
12:55 PM27 °FSunny.6 mph33%30.29 "Hg10 mi
12:35 PM27 °FSunny.6 mph33%30.31 "Hg10 mi
12:15 PM27 °FSunny.3 mph33%30.32 "Hg10 mi
11:55 AM25 °FSunny.No wind36%30.33 "Hg10 mi
11:35 AM25 °FSunny.No wind36%30.34 "Hg10 mi
11:15 AM23 °FSunny.No wind39%30.35 "Hg10 mi
10:55 AM21 °FSunny.3 mph42%30.35 "Hg10 mi
10:35 AM21 °FSunny.3 mph42%30.36 "Hg10 mi
10:15 AM21 °FSunny.No wind42%30.37 "Hg10 mi
9:55 AM19 °FSunny.No wind45%30.37 "Hg10 mi
9:35 AM19 °FSunny.No wind45%30.37 "Hg10 mi
9:15 AM18 °FSunny.No wind53%30.38 "Hg10 mi
8:55 AM16 °FSunny.No wind57%30.38 "Hg10 mi
8:35 AM12 °FSunny.No wind67%30.39 "Hg10 mi
8:15 AM9 °FSunny.No wind72%30.38 "Hg10 mi
7:55 AM9 °FSunny.No wind78%30.37 "Hg8 mi
7:35 AM5 °FSunny.No wind85%30.37 "Hg10 mi
7:15 AM3 °FSunny.No wind92%30.35 "Hg9 mi
6:55 AM3 °FSunny.No wind78%30.35 "Hg10 mi
6:35 AM7 °FSunny.No wind72%30.35 "Hg10 mi
6:15 AM5 °FClear.No wind72%30.34 "Hg10 mi
5:55 AM7 °FClear.No wind78%30.34 "Hg10 mi
5:35 AM7 °FClear.No wind72%30.33 "Hg10 mi
5:15 AM9 °FClear.No wind66%30.33 "Hg10 mi
4:55 AM12 °FClear.No wind67%30.32 "Hg10 mi
4:35 AM14 °FClear.No wind62%30.32 "Hg10 mi
4:15 AM14 °FClear.No wind57%30.31 "Hg10 mi
3:55 AM16 °FClear.No wind53%30.30 "Hg10 mi
3:35 AM18 °FClear.No wind49%30.29 "Hg10 mi
3:15 AM19 °FClear.No wind49%30.29 "Hg10 mi
2:55 AM19 °FClear.7 mph49%30.28 "Hg10 mi
2:35 AM19 °FClear.7 mph49%30.28 "Hg10 mi
2:15 AM19 °FClear.8 mph49%30.28 "Hg10 mi
1:55 AM19 °FClear.7 mph49%30.28 "Hg10 mi
1:35 AM19 °FClear.7 mph49%30.28 "Hg10 mi
1:15 AM21 °FClear.6 mph45%30.27 "Hg10 mi
12:55 AM21 °FClear.No wind45%30.27 "Hg10 mi
12:35 AM21 °FClear.8 mph45%30.26 "Hg10 mi
12:15 AM21 °FClear.10 mph49%30.26 "Hg10 mi
11:55 PM
Mon, Mar 2
21 °FClear.18 mph49%30.24 "Hg10 mi
11:35 PM21 °FClear.15 mph54%30.24 "Hg10 mi
11:15 PM23 °FClear.9 mph54%30.24 "Hg10 mi
10:55 PM23 °FClear.10 mph58%30.21 "Hg10 mi
10:35 PM23 °FClear.9 mph68%30.21 "Hg10 mi
9:55 PM23 °FMostly cloudy.14 mph74%30.19 "Hg3 mi
9:35 PM25 °FPassing clouds.18 mph50%30.18 "Hg10 mi
9:15 PM27 °FClear.15 mph46%30.18 "Hg10 mi
8:55 PM27 °FClear.15 mph43%30.16 "Hg10 mi
8:35 PM27 °FClear.16 mph43%30.16 "Hg10 mi
8:15 PM27 °FPassing clouds.9 mph43%30.15 "Hg10 mi
7:55 PM27 °FPassing clouds.13 mph43%30.14 "Hg9 mi
7:35 PM27 °FPassing clouds.12 mph46%30.15 "Hg10 mi
7:15 PM27 °FPassing clouds.7 mph46%30.14 "Hg10 mi
6:55 PM27 °FPassing clouds.7 mph46%30.13 "Hg10 mi
6:35 PM28 °FPassing clouds.10 mph47%30.12 "Hg10 mi
6:15 PM28 °FPassing clouds.8 mph51%30.10 "Hg10 mi
5:55 PM28 °FPartly cloudy.9 mph64%30.08 "Hg10 mi
5:35 PM28 °FBroken clouds.12 mph64%30.07 "Hg5 mi
5:15 PM28 °FBroken clouds.14 mph59%30.05 "Hg10 mi
4:55 PM28 °FBroken clouds.7 mph64%30.04 "Hg9 mi
4:35 PM28 °FScattered clouds.16 mph59%30.03 "Hg8 mi
4:15 PM30 °FSunny.12 mph55%30.02 "Hg10 mi
3:55 PM30 °FSunny.17 mph55%30.02 "Hg10 mi
3:35 PM30 °FPassing clouds.16 mph47%30.02 "Hg5 mi
3:15 PM30 °FScattered clouds.16 mph47%30.01 "Hg10 mi
Weather by CustomWeather, © 2015

See weather overviewHow to use our weather pages